M I D A S
Marine Information and Data Acquisition System
Tripno 1481 of the Zeeleeuw from 2008-05-07 07:14:58 to 2008-05-08 14:39:03
Back to CruiseResearch ActivitiesStationsMapUnderway DataData graphs

EquipmentUnitsComments
TimeDGPSUTC
LatitudeDGPSDM.mWGS84
LongitudeDGPSDM.mWGS84
SpeedMeteo Stationm/sRelative wind speed
DirectionMeteo StationdegRelative wind direction
TemperatureMeteo Stationdeg CelciusAir temperature
PressureMeteo StationPaAtmospheric pressure
HumidityMeteo Station%Relative humidity
Missing or incorrect values are displayed as -999
Metereological data collected by the RV Zeeleeuw from 2008-05-07 07:18:57 to 2008-05-08 14:44:06
                                                                                    Next 1000 lines
Time Latitude Longitude Speed Direction Temperature Pressure Humidity
2008-05-07 07:19:07 51°13.667 2°55.95 -999 -999 -999 -999 -999
2008-05-07 07:19:12 51°13.668 2°55.947 -999 -999 -999 -999 -999
2008-05-07 07:19:17 51°13.67 2°55.942 -999 -999 -999 -999 -999
2008-05-07 07:19:22 51°13.671 2°55.937 -999 -999 -999 -999 -999
2008-05-07 07:19:27 51°13.673 2°55.932 -999 -999 -999 -999 -999
2008-05-07 07:19:32 51°13.676 2°55.926 -999 -999 -999 -999 -999
2008-05-07 07:19:37 51°13.678 2°55.919 -999 -999 -999 -999 -999
2008-05-07 07:19:42 51°13.681 2°55.912 -999 -999 -999 -999 -999
2008-05-07 07:19:47 51°13.683 2°55.905 -999 -999 -999 -999 -999
2008-05-07 07:19:52 51°13.686 2°55.898 -999 -999 -999 -999 -999
2008-05-07 07:19:57 51°13.689 2°55.89 -999 -999 -999 -999 -999
2008-05-07 07:20:02 51°13.691 2°55.883 -999 -999 -999 -999 -999
2008-05-07 07:20:07 51°13.693 2°55.875 -999 -999 -999 -999 -999
2008-05-07 07:20:12 51°13.695 2°55.866 -999 -999 -999 -999 -999
2008-05-07 07:20:17 51°13.696 2°55.858 -999 -999 -999 -999 -999
2008-05-07 07:20:22 51°13.697 2°55.85 -999 -999 -999 -999 -999
2008-05-07 07:20:27 51°13.698 2°55.842 -999 -999 -999 -999 -999
2008-05-07 07:20:32 51°13.699 2°55.833 -999 -999 -999 -999 -999
2008-05-07 07:20:37 51°13.7 2°55.825 -999 -999 -999 -999 -999
2008-05-07 07:20:42 51°13.701 2°55.818 -999 -999 -999 -999 -999
2008-05-07 07:20:47 51°13.701 2°55.81 -999 -999 -999 -999 -999
2008-05-07 07:20:52 51°13.702 2°55.803 -999 -999 -999 -999 -999
2008-05-07 07:20:57 51°13.702 2°55.796 -999 -999 -999 -999 -999
2008-05-07 07:21:02 51°13.702 2°55.79 -999 -999 -999 -999 -999
2008-05-07 07:21:07 51°13.702 2°55.784 -999 -999 -999 -999 -999
2008-05-07 07:21:12 51°13.702 2°55.777 -999 -999 -999 -999 -999
2008-05-07 07:21:17 51°13.702 2°55.771 -999 -999 -999 -999 -999
2008-05-07 07:21:22 51°13.702 2°55.766 -999 -999 -999 -999 -999
2008-05-07 07:21:27 51°13.702 2°55.76 -999 -999 -999 -999 -999
2008-05-07 07:21:32 51°13.702 2°55.755 -999 -999 -999 -999 -999
2008-05-07 07:21:37 51°13.702 2°55.749 -999 -999 -999 -999 -999
2008-05-07 07:21:42 51°13.702 2°55.745 -999 -999 -999 -999 -999
2008-05-07 07:21:46 51°13.702 2°55.741 -999 -999 -999 -999 -999
2008-05-07 07:21:52 51°13.702 2°55.736 -999 -999 -999 -999 -999
2008-05-07 07:21:57 51°13.702 2°55.732 -999 -999 -999 -999 -999
2008-05-07 07:22:02 51°13.702 2°55.729 -999 -999 -999 -999 -999
2008-05-07 07:22:07 51°13.701 2°55.726 -999 -999 -999 -999 -999
2008-05-07 07:22:12 51°13.701 2°55.724 -999 -999 -999 -999 -999
2008-05-07 07:22:17 51°13.701 2°55.721 -999 -999 -999 -999 -999
2008-05-07 07:22:22 51°13.702 2°55.719 -999 -999 -999 -999 -999
2008-05-07 07:22:27 51°13.702 2°55.718 -999 -999 -999 -999 -999
2008-05-07 07:22:32 51°13.702 2°55.716 -999 -999 -999 -999 -999
2008-05-07 07:22:37 51°13.702 2°55.716 -999 -999 -999 -999 -999
2008-05-07 07:22:42 51°13.703 2°55.715 -999 -999 -999 -999 -999
2008-05-07 07:22:47 51°13.704 2°55.715 -999 -999 -999 -999 -999
2008-05-07 07:22:52 51°13.704 2°55.716 -999 -999 -999 -999 -999
2008-05-07 07:22:57 51°13.706 2°55.716 -999 -999 -999 -999 -999
2008-05-07 07:23:01 51°13.707 2°55.717 -999 -999 -999 -999 -999
2008-05-07 07:23:07 51°13.71 2°55.718 -999 -999 -999 -999 -999
2008-05-07 07:23:12 51°13.712 2°55.719 -999 -999 -999 -999 -999
2008-05-07 07:23:17 51°13.715 2°55.72 -999 -999 -999 -999 -999
2008-05-07 07:23:22 51°13.718 2°55.72 -999 -999 -999 -999 -999
2008-05-07 07:23:27 51°13.721 2°55.721 -999 -999 -999 -999 -999
2008-05-07 07:23:32 51°13.725 2°55.72 -999 -999 -999 -999 -999
2008-05-07 07:23:37 51°13.729 2°55.719 -999 -999 -999 -999 -999
2008-05-07 07:23:42 51°13.733 2°55.717 -999 -999 -999 -999 -999
2008-05-07 07:23:47 51°13.738 2°55.714 -999 -999 -999 -999 -999
2008-05-07 07:23:52 51°13.743 2°55.71 -999 -999 -999 -999 -999
2008-05-07 07:23:57 51°13.749 2°55.706 -999 -999 -999 -999 -999
2008-05-07 07:24:02 51°13.755 2°55.702 -999 -999 -999 -999 -999
2008-05-07 07:24:06 51°13.759 2°55.698 -999 -999 -999 -999 -999
2008-05-07 07:24:12 51°13.767 2°55.692 -999 -999 -999 -999 -999
2008-05-07 07:24:17 51°13.773 2°55.686 -999 -999 -999 -999 -999
2008-05-07 07:24:22 51°13.78 2°55.681 -999 -999 -999 -999 -999
2008-05-07 07:24:27 51°13.787 2°55.675 -999 -999 -999 -999 -999
2008-05-07 07:24:32 51°13.794 2°55.67 -999 -999 -999 -999 -999
2008-05-07 07:24:37 51°13.801 2°55.664 -999 -999 -999 -999 -999
2008-05-07 07:24:42 51°13.809 2°55.658 -999 -999 -999 -999 -999
2008-05-07 07:24:47 51°13.816 2°55.652 -999 -999 -999 -999 -999
2008-05-07 07:24:52 51°13.824 2°55.646 -999 -999 -999 -999 -999
2008-05-07 07:24:57 51°13.832 2°55.639 -999 -999 -999 -999 -999
2008-05-07 07:25:02 51°13.84 2°55.633 -999 -999 -999 -999 -999
2008-05-07 07:25:07 51°13.848 2°55.626 -999 -999 -999 -999 -999
2008-05-07 07:25:12 51°13.856 2°55.621 -999 -999 -999 -999 -999
2008-05-07 07:25:17 51°13.865 2°55.615 -999 -999 -999 -999 -999
2008-05-07 07:25:22 51°13.873 2°55.609 -999 -999 -999 -999 -999
2008-05-07 07:25:27 51°13.882 2°55.602 -999 -999 -999 -999 -999
2008-05-07 07:25:32 51°13.89 2°55.596 -999 -999 -999 -999 -999
2008-05-07 07:25:37 51°13.899 2°55.589 -999 -999 -999 -999 -999
2008-05-07 07:25:42 51°13.907 2°55.583 -999 -999 -999 -999 -999
2008-05-07 07:25:47 51°13.916 2°55.576 -999 -999 -999 -999 -999
2008-05-07 07:25:52 51°13.924 2°55.57 -999 -999 -999 -999 -999
2008-05-07 07:25:57 51°13.933 2°55.564 -999 -999 -999 -999 -999
2008-05-07 07:26:02 51°13.941 2°55.558 -999 -999 -999 -999 -999
2008-05-07 07:26:07 51°13.95 2°55.552 -999 -999 -999 -999 -999
2008-05-07 07:26:12 51°13.959 2°55.547 -999 -999 -999 -999 -999
2008-05-07 07:26:17 51°13.967 2°55.541 -999 -999 -999 -999 -999
2008-05-07 07:26:22 51°13.976 2°55.535 -999 -999 -999 -999 -999
2008-05-07 07:26:27 51°13.984 2°55.529 -999 -999 -999 -999 -999
2008-05-07 07:26:32 51°13.992 2°55.524 -999 -999 -999 -999 -999
2008-05-07 07:26:37 51°14 2°55.518 -999 -999 -999 -999 -999
2008-05-07 07:26:42 51°14.008 2°55.512 -999 -999 -999 -999 -999
2008-05-07 07:26:47 51°14.016 2°55.506 -999 -999 -999 -999 -999
2008-05-07 07:26:52 51°14.023 2°55.499 -999 -999 -999 -999 -999
2008-05-07 07:26:57 51°14.031 2°55.493 -999 -999 -999 -999 -999
2008-05-07 07:27:02 51°14.039 2°55.486 -999 -999 -999 -999 -999
2008-05-07 07:27:07 51°14.046 2°55.479 -999 -999 -999 -999 -999
2008-05-07 07:27:12 51°14.054 2°55.473 -999 -999 -999 -999 -999
2008-05-07 07:27:17 51°14.062 2°55.466 -999 -999 -999 -999 -999
2008-05-07 07:27:22 51°14.07 2°55.461 -999 -999 -999 -999 -999
2008-05-07 07:27:27 51°14.079 2°55.455 -999 -999 -999 -999 -999
2008-05-07 07:27:32 51°14.087 2°55.449 -999 -999 -999 -999 -999
2008-05-07 07:27:37 51°14.095 2°55.443 -999 -999 -999 -999 -999
2008-05-07 07:27:42 51°14.103 2°55.437 -999 -999 -999 -999 -999
2008-05-07 07:27:47 51°14.112 2°55.43 -999 -999 -999 -999 -999
2008-05-07 07:27:52 51°14.12 2°55.423 -999 -999 -999 -999 -999
2008-05-07 07:27:57 51°14.128 2°55.416 -999 -999 -999 -999 -999
2008-05-07 07:28:02 51°14.137 2°55.409 -999 -999 -999 -999 -999
2008-05-07 07:28:07 51°14.145 2°55.402 -999 -999 -999 -999 -999
2008-05-07 07:28:12 51°14.154 2°55.395 -999 -999 -999 -999 -999
2008-05-07 07:28:17 51°14.162 2°55.387 -999 -999 -999 -999 -999
2008-05-07 07:28:22 51°14.17 2°55.378 -999 -999 -999 -999 -999
2008-05-07 07:28:27 51°14.178 2°55.369 -999 -999 -999 -999 -999
2008-05-07 07:28:32 51°14.187 2°55.361 -999 -999 -999 -999 -999
2008-05-07 07:28:37 51°14.195 2°55.351 -999 -999 -999 -999 -999
2008-05-07 07:28:42 51°14.203 2°55.341 -999 -999 -999 -999 -999
2008-05-07 07:28:47 51°14.211 2°55.33 -999 -999 -999 -999 -999
2008-05-07 07:28:52 51°14.219 2°55.319 -999 -999 -999 -999 -999
2008-05-07 07:28:57 51°14.227 2°55.308 -999 -999 -999 -999 -999
2008-05-07 07:29:02 51°14.235 2°55.296 -999 -999 -999 -999 -999
2008-05-07 07:29:07 51°14.243 2°55.285 -999 -999 -999 -999 -999
2008-05-07 07:29:12 51°14.25 2°55.273 -999 -999 -999 -999 -999
2008-05-07 07:29:17 51°14.258 2°55.261 -999 -999 -999 -999 -999
2008-05-07 07:29:22 51°14.265 2°55.248 -999 -999 -999 -999 -999
2008-05-07 07:29:27 51°14.273 2°55.236 -999 -999 -999 -999 -999
2008-05-07 07:29:32 51°14.28 2°55.223 -999 -999 -999 -999 -999
2008-05-07 07:29:37 51°14.287 2°55.21 -999 -999 -999 -999 -999
2008-05-07 07:29:41 51°14.293 2°55.2 -999 -999 -999 -999 -999
2008-05-07 07:29:47 51°14.302 2°55.183 -999 -999 -999 -999 -999
2008-05-07 07:29:52 51°14.309 2°55.17 -999 -999 -999 -999 -999
2008-05-07 07:29:57 51°14.315 2°55.157 -999 -999 -999 -999 -999
2008-05-07 07:30:02 51°14.322 2°55.144 -999 -999 -999 -999 -999
2008-05-07 07:30:07 51°14.328 2°55.131 -999 -999 -999 -999 -999
2008-05-07 07:30:12 51°14.335 2°55.119 -999 -999 -999 -999 -999
2008-05-07 07:30:17 51°14.341 2°55.106 -999 -999 -999 -999 -999
2008-05-07 07:30:22 51°14.347 2°55.094 -999 -999 -999 -999 -999
2008-05-07 07:30:27 51°14.353 2°55.081 -999 -999 -999 -999 -999
2008-05-07 07:30:32 51°14.358 2°55.068 -999 -999 -999 -999 -999
2008-05-07 07:30:37 51°14.364 2°55.056 -999 -999 -999 -999 -999
2008-05-07 07:30:42 51°14.369 2°55.043 -999 -999 -999 -999 -999
2008-05-07 07:30:47 51°14.375 2°55.03 -999 -999 -999 -999 -999
2008-05-07 07:30:52 51°14.38 2°55.017 -999 -999 -999 -999 -999
2008-05-07 07:30:57 51°14.386 2°55.004 -999 -999 -999 -999 -999
2008-05-07 07:31:02 51°14.392 2°54.991 -999 -999 -999 -999 -999
2008-05-07 07:31:06 51°14.397 2°54.98 -999 -999 -999 -999 -999
2008-05-07 07:31:12 51°14.406 2°54.964 -999 -999 -999 -999 -999
2008-05-07 07:31:17 51°14.415 2°54.95 -999 -999 -999 -999 -999
2008-05-07 07:31:22 51°14.423 2°54.937 -999 -999 -999 -999 -999
2008-05-07 07:31:26 51°14.431 2°54.926 -999 -999 -999 -999 -999
2008-05-07 07:31:31 51°14.441 2°54.914 -999 -999 -999 -999 -999
2008-05-07 07:31:36 51°14.452 2°54.903 -999 -999 -999 -999 -999
2008-05-07 07:31:41 51°14.464 2°54.892 -999 -999 -999 -999 -999
2008-05-07 07:31:46 51°14.475 2°54.88 -999 -999 -999 -999 -999
2008-05-07 07:31:52 51°14.49 2°54.864 -999 -999 -999 -999 -999
2008-05-07 07:31:57 51°14.501 2°54.85 -999 -999 -999 -999 -999
2008-05-07 07:32:02 51°14.513 2°54.835 -999 -999 -999 -999 -999
2008-05-07 07:32:07 51°14.526 2°54.82 -999 -999 -999 -999 -999
2008-05-07 07:32:12 51°14.539 2°54.806 -999 -999 -999 -999 -999
2008-05-07 07:32:17 51°14.552 2°54.791 -999 -999 -999 -999 -999
2008-05-07 07:32:22 51°14.565 2°54.776 -999 -999 -999 -999 -999
2008-05-07 07:32:27 51°14.578 2°54.761 -999 -999 -999 -999 -999
2008-05-07 07:32:32 51°14.592 2°54.747 -999 -999 -999 -999 -999
2008-05-07 07:32:37 51°14.606 2°54.732 -999 -999 -999 -999 -999
2008-05-07 07:32:42 51°14.619 2°54.717 -999 -999 -999 -999 -999
2008-05-07 07:32:47 51°14.633 2°54.702 -999 -999 -999 -999 -999
2008-05-07 07:32:52 51°14.647 2°54.686 -999 -999 -999 -999 -999
2008-05-07 07:32:57 51°14.661 2°54.671 -999 -999 -999 -999 -999
2008-05-07 07:33:02 51°14.675 2°54.656 -999 -999 -999 -999 -999
2008-05-07 07:33:07 51°14.689 2°54.641 -999 -999 -999 -999 -999
2008-05-07 07:33:12 51°14.703 2°54.626 -999 -999 -999 -999 -999
2008-05-07 07:33:17 51°14.718 2°54.611 -999 -999 -999 -999 -999
2008-05-07 07:33:22 51°14.732 2°54.595 -999 -999 -999 -999 -999
2008-05-07 07:33:27 51°14.745 2°54.579 -999 -999 -999 -999 -999
2008-05-07 07:33:32 51°14.759 2°54.563 -999 -999 -999 -999 -999
2008-05-07 07:33:37 51°14.773 2°54.547 -999 -999 -999 -999 -999
2008-05-07 07:33:42 51°14.787 2°54.531 -999 -999 -999 -999 -999
2008-05-07 07:33:47 51°14.8 2°54.514 -999 -999 -999 -999 -999
2008-05-07 07:33:52 51°14.814 2°54.498 -999 -999 -999 -999 -999
2008-05-07 07:33:57 51°14.828 2°54.483 -999 -999 -999 -999 -999
2008-05-07 07:34:02 51°14.842 2°54.468 -999 -999 -999 -999 -999
2008-05-07 07:34:07 51°14.856 2°54.453 -999 -999 -999 -999 -999
2008-05-07 07:34:12 51°14.871 2°54.438 -999 -999 -999 -999 -999
2008-05-07 07:34:17 51°14.885 2°54.424 -999 -999 -999 -999 -999
2008-05-07 07:34:22 51°14.899 2°54.41 -999 -999 -999 -999 -999
2008-05-07 07:34:27 51°14.914 2°54.397 -999 -999 -999 -999 -999
2008-05-07 07:34:32 51°14.928 2°54.383 -999 -999 -999 -999 -999
2008-05-07 07:34:37 51°14.943 2°54.371 -999 -999 -999 -999 -999
2008-05-07 07:34:42 51°14.957 2°54.358 -999 -999 -999 -999 -999
2008-05-07 07:34:47 51°14.971 2°54.345 -999 -999 -999 -999 -999
2008-05-07 07:34:52 51°14.985 2°54.332 -999 -999 -999 -999 -999
2008-05-07 07:34:57 51°14.999 2°54.319 -999 -999 -999 -999 -999
2008-05-07 07:35:02 51°15.013 2°54.306 -999 -999 -999 -999 -999
2008-05-07 07:35:07 51°15.027 2°54.292 -999 -999 -999 -999 -999
2008-05-07 07:35:12 51°15.041 2°54.279 -999 -999 -999 -999 -999
2008-05-07 07:35:17 51°15.055 2°54.266 -999 -999 -999 -999 -999
2008-05-07 07:35:22 51°15.069 2°54.252 -999 -999 -999 -999 -999
2008-05-07 07:35:27 51°15.083 2°54.239 -999 -999 -999 -999 -999
2008-05-07 07:35:32 51°15.097 2°54.225 -999 -999 -999 -999 -999
2008-05-07 07:35:37 51°15.111 2°54.212 -999 -999 -999 -999 -999
2008-05-07 07:35:42 51°15.125 2°54.199 -999 -999 -999 -999 -999
2008-05-07 07:35:47 51°15.139 2°54.186 -999 -999 -999 -999 -999
2008-05-07 07:35:52 51°15.154 2°54.173 -999 -999 -999 -999 -999
2008-05-07 07:35:57 51°15.169 2°54.161 -999 -999 -999 -999 -999
2008-05-07 07:36:02 51°15.183 2°54.148 -999 -999 -999 -999 -999
2008-05-07 07:36:07 51°15.198 2°54.136 -999 -999 -999 -999 -999
2008-05-07 07:36:12 51°15.213 2°54.123 -999 -999 -999 -999 -999
2008-05-07 07:36:17 51°15.228 2°54.111 -999 -999 -999 -999 -999
2008-05-07 07:36:22 51°15.242 2°54.098 -999 -999 -999 -999 -999
2008-05-07 07:36:27 51°15.257 2°54.085 -999 -999 -999 -999 -999
2008-05-07 07:36:32 51°15.272 2°54.072 -999 -999 -999 -999 -999
2008-05-07 07:36:37 51°15.287 2°54.059 -999 -999 -999 -999 -999
2008-05-07 07:36:42 51°15.302 2°54.046 -999 -999 -999 -999 -999
2008-05-07 07:36:47 51°15.316 2°54.033 -999 -999 -999 -999 -999
2008-05-07 07:36:52 51°15.331 2°54.02 -999 -999 -999 -999 -999
2008-05-07 07:36:57 51°15.346 2°54.008 -999 -999 -999 -999 -999
2008-05-07 07:37:02 51°15.361 2°53.994 -999 -999 -999 -999 -999
2008-05-07 07:37:07 51°15.376 2°53.981 -999 -999 -999 -999 -999
2008-05-07 07:37:12 51°15.391 2°53.968 -999 -999 -999 -999 -999
2008-05-07 07:37:17 51°15.406 2°53.955 -999 -999 -999 -999 -999
2008-05-07 07:37:22 51°15.42 2°53.942 -999 -999 -999 -999 -999
2008-05-07 07:37:27 51°15.435 2°53.929 -999 -999 -999 -999 -999
2008-05-07 07:37:32 51°15.45 2°53.915 -999 -999 -999 -999 -999
2008-05-07 07:37:37 51°15.465 2°53.901 -999 -999 -999 -999 -999
2008-05-07 07:37:42 51°15.48 2°53.888 -999 -999 -999 -999 -999
2008-05-07 07:37:47 51°15.494 2°53.875 -999 -999 -999 -999 -999
2008-05-07 07:37:52 51°15.509 2°53.862 -999 -999 -999 -999 -999
2008-05-07 07:37:57 51°15.524 2°53.848 -999 -999 -999 -999 -999
2008-05-07 07:38:02 51°15.539 2°53.835 -999 -999 -999 -999 -999
2008-05-07 07:38:07 51°15.554 2°53.822 -999 -999 -999 -999 -999
2008-05-07 07:38:12 51°15.569 2°53.808 -999 -999 -999 -999 -999
2008-05-07 07:38:17 51°15.584 2°53.795 -999 -999 -999 -999 -999
2008-05-07 07:38:22 51°15.599 2°53.781 -999 -999 -999 -999 -999
2008-05-07 07:38:27 51°15.614 2°53.768 -999 -999 -999 -999 -999
2008-05-07 07:38:32 51°15.629 2°53.754 -999 -999 -999 -999 -999
2008-05-07 07:38:37 51°15.644 2°53.741 -999 -999 -999 -999 -999
2008-05-07 07:38:42 51°15.658 2°53.728 -999 -999 -999 -999 -999
2008-05-07 07:38:47 51°15.673 2°53.714 -999 -999 -999 -999 -999
2008-05-07 07:38:52 51°15.688 2°53.701 -999 -999 -999 -999 -999
2008-05-07 07:38:57 51°15.703 2°53.688 -999 -999 -999 -999 -999
2008-05-07 07:39:02 51°15.718 2°53.675 -999 -999 -999 -999 -999
2008-05-07 07:39:07 51°15.733 2°53.661 -999 -999 -999 -999 -999
2008-05-07 07:39:12 51°15.748 2°53.648 -999 -999 -999 -999 -999
2008-05-07 07:39:17 51°15.763 2°53.634 -999 -999 -999 -999 -999
2008-05-07 07:39:22 51°15.777 2°53.621 -999 -999 -999 -999 -999
2008-05-07 07:39:27 51°15.792 2°53.607 -999 -999 -999 -999 -999
2008-05-07 07:39:32 51°15.807 2°53.594 -999 -999 -999 -999 -999
2008-05-07 07:39:37 51°15.822 2°53.58 -999 -999 -999 -999 -999
2008-05-07 07:39:42 51°15.837 2°53.567 -999 -999 -999 -999 -999
2008-05-07 07:39:47 51°15.852 2°53.553 -999 -999 -999 -999 -999
2008-05-07 07:39:52 51°15.867 2°53.54 -999 -999 -999 -999 -999
2008-05-07 07:39:57 51°15.881 2°53.526 -999 -999 -999 -999 -999
2008-05-07 07:40:02 51°15.896 2°53.513 -999 -999 -999 -999 -999
2008-05-07 07:40:07 51°15.911 2°53.499 -999 -999 -999 -999 -999
2008-05-07 07:40:12 51°15.926 2°53.485 -999 -999 -999 -999 -999
2008-05-07 07:40:17 51°15.941 2°53.472 -999 -999 -999 -999 -999
2008-05-07 07:40:22 51°15.956 2°53.458 -999 -999 -999 -999 -999
2008-05-07 07:40:27 51°15.97 2°53.444 -999 -999 -999 -999 -999
2008-05-07 07:40:32 51°15.985 2°53.43 -999 -999 -999 -999 -999
2008-05-07 07:40:37 51°16 2°53.416 -999 -999 -999 -999 -999
2008-05-07 07:40:42 51°16.015 2°53.402 -999 -999 -999 -999 -999
2008-05-07 07:40:47 51°16.029 2°53.388 -999 -999 -999 -999 -999
2008-05-07 07:40:52 51°16.044 2°53.374 -999 -999 -999 -999 -999
2008-05-07 07:40:57 51°16.059 2°53.36 -999 -999 -999 -999 -999
2008-05-07 07:41:02 51°16.074 2°53.347 -999 -999 -999 -999 -999
2008-05-07 07:41:07 51°16.089 2°53.334 -999 -999 -999 -999 -999
2008-05-07 07:41:12 51°16.104 2°53.32 -999 -999 -999 -999 -999
2008-05-07 07:41:17 51°16.119 2°53.306 -999 -999 -999 -999 -999
2008-05-07 07:41:22 51°16.134 2°53.292 -999 -999 -999 -999 -999
2008-05-07 07:41:27 51°16.149 2°53.279 -999 -999 -999 -999 -999
2008-05-07 07:41:32 51°16.164 2°53.266 -999 -999 -999 -999 -999
2008-05-07 07:41:37 51°16.179 2°53.253 -999 -999 -999 -999 -999
2008-05-07 07:41:42 51°16.194 2°53.239 -999 -999 -999 -999 -999
2008-05-07 07:41:47 51°16.209 2°53.226 -999 -999 -999 -999 -999
2008-05-07 07:41:52 51°16.223 2°53.213 -999 -999 -999 -999 -999
2008-05-07 07:41:57 51°16.238 2°53.199 -999 -999 -999 -999 -999
2008-05-07 07:42:02 51°16.253 2°53.185 -999 -999 -999 -999 -999
2008-05-07 07:42:07 51°16.268 2°53.172 -999 -999 -999 -999 -999
2008-05-07 07:42:12 51°16.282 2°53.158 -999 -999 -999 -999 -999
2008-05-07 07:42:17 51°16.297 2°53.145 -999 -999 -999 -999 -999
2008-05-07 07:42:22 51°16.312 2°53.131 -999 -999 -999 -999 -999
2008-05-07 07:42:27 51°16.326 2°53.117 -999 -999 -999 -999 -999
2008-05-07 07:42:32 51°16.341 2°53.103 -999 -999 -999 -999 -999
2008-05-07 07:42:37 51°16.356 2°53.089 -999 -999 -999 -999 -999
2008-05-07 07:42:42 51°16.371 2°53.076 -999 -999 -999 -999 -999
2008-05-07 07:42:47 51°16.385 2°53.062 -999 -999 -999 -999 -999
2008-05-07 07:42:52 51°16.4 2°53.048 -999 -999 -999 -999 -999
2008-05-07 07:42:57 51°16.414 2°53.034 -999 -999 -999 -999 -999
2008-05-07 07:43:02 51°16.429 2°53.021 -999 -999 -999 -999 -999
2008-05-07 07:43:07 51°16.444 2°53.008 -999 -999 -999 -999 -999
2008-05-07 07:43:12 51°16.459 2°52.996 -999 -999 -999 -999 -999
2008-05-07 07:43:17 51°16.474 2°52.983 -999 -999 -999 -999 -999
2008-05-07 07:43:22 51°16.489 2°52.971 -999 -999 -999 -999 -999
2008-05-07 07:43:27 51°16.503 2°52.958 -999 -999 -999 -999 -999
2008-05-07 07:43:32 51°16.518 2°52.946 -999 -999 -999 -999 -999
2008-05-07 07:43:36 51°16.53 2°52.937 -999 -999 -999 -999 -999
2008-05-07 07:43:42 51°16.548 2°52.923 -999 -999 -999 -999 -999
2008-05-07 07:43:47 51°16.563 2°52.911 -999 -999 -999 -999 -999
2008-05-07 07:43:52 51°16.578 2°52.9 -999 -999 -999 -999 -999
2008-05-07 07:43:57 51°16.594 2°52.889 -999 -999 -999 -999 -999
2008-05-07 07:44:02 51°16.609 2°52.879 -999 -999 -999 -999 -999
2008-05-07 07:44:07 51°16.624 2°52.869 -999 -999 -999 -999 -999
2008-05-07 07:44:12 51°16.639 2°52.858 -999 -999 -999 -999 -999
2008-05-07 07:44:17 51°16.655 2°52.847 -999 -999 -999 -999 -999
2008-05-07 07:44:22 51°16.67 2°52.836 -999 -999 -999 -999 -999
2008-05-07 07:44:27 51°16.685 2°52.825 -999 -999 -999 -999 -999
2008-05-07 07:44:31 51°16.697 2°52.817 -999 -999 -999 -999 -999
2008-05-07 07:44:37 51°16.715 2°52.804 -999 -999 -999 -999 -999
2008-05-07 07:44:42 51°16.73 2°52.794 -999 -999 -999 -999 -999
2008-05-07 07:44:47 51°16.745 2°52.783 -999 -999 -999 -999 -999
2008-05-07 07:44:52 51°16.76 2°52.772 -999 -999 -999 -999 -999
2008-05-07 07:44:57 51°16.775 2°52.761 -999 -999 -999 -999 -999
2008-05-07 07:45:02 51°16.789 2°52.751 -999 -999 -999 -999 -999
2008-05-07 07:45:07 51°16.804 2°52.74 -999 -999 -999 -999 -999
2008-05-07 07:45:12 51°16.819 2°52.73 -999 -999 -999 -999 -999
2008-05-07 07:45:17 51°16.833 2°52.719 -999 -999 -999 -999 -999
2008-05-07 07:45:22 51°16.848 2°52.708 -999 -999 -999 -999 -999
2008-05-07 07:45:27 51°16.862 2°52.697 -999 -999 -999 -999 -999
2008-05-07 07:45:32 51°16.877 2°52.686 -999 -999 -999 -999 -999
2008-05-07 07:45:37 51°16.891 2°52.675 -999 -999 -999 -999 -999
2008-05-07 07:45:42 51°16.906 2°52.665 -999 -999 -999 -999 -999
2008-05-07 07:45:47 51°16.92 2°52.654 -999 -999 -999 -999 -999
2008-05-07 07:45:52 51°16.935 2°52.643 -999 -999 -999 -999 -999
2008-05-07 07:45:57 51°16.95 2°52.632 -999 -999 -999 -999 -999
2008-05-07 07:46:02 51°16.965 2°52.621 -999 -999 -999 -999 -999
2008-05-07 07:46:07 51°16.979 2°52.61 -999 -999 -999 -999 -999
2008-05-07 07:46:12 51°16.994 2°52.599 -999 -999 -999 -999 -999
2008-05-07 07:46:17 51°17.009 2°52.588 -999 -999 -999 -999 -999
2008-05-07 07:46:22 51°17.024 2°52.577 -999 -999 -999 -999 -999
2008-05-07 07:46:27 51°17.038 2°52.566 -999 -999 -999 -999 -999
2008-05-07 07:46:32 51°17.053 2°52.555 -999 -999 -999 -999 -999
2008-05-07 07:46:37 51°17.068 2°52.545 -999 -999 -999 -999 -999
2008-05-07 07:46:42 51°17.082 2°52.534 -999 -999 -999 -999 -999
2008-05-07 07:46:47 51°17.097 2°52.523 -999 -999 -999 -999 -999
2008-05-07 07:46:51 51°17.108 2°52.514 -999 -999 -999 -999 -999
2008-05-07 07:46:57 51°17.126 2°52.501 -999 -999 -999 -999 -999
2008-05-07 07:47:02 51°17.141 2°52.489 -999 -999 -999 -999 -999
2008-05-07 07:47:07 51°17.155 2°52.479 -999 -999 -999 -999 -999
2008-05-07 07:47:11 51°17.167 2°52.469 -999 -999 -999 -999 -999
2008-05-07 07:47:17 51°17.184 2°52.455 -999 -999 -999 -999 -999
2008-05-07 07:47:22 51°17.199 2°52.443 -999 -999 -999 -999 -999
2008-05-07 07:47:27 51°17.213 2°52.43 -999 -999 -999 -999 -999
2008-05-07 07:47:32 51°17.227 2°52.417 -999 -999 -999 -999 -999
2008-05-07 07:47:37 51°17.241 2°52.403 -999 -999 -999 -999 -999
2008-05-07 07:47:42 51°17.255 2°52.39 -999 -999 -999 -999 -999
2008-05-07 07:47:47 51°17.269 2°52.376 -999 -999 -999 -999 -999
2008-05-07 07:47:52 51°17.283 2°52.363 -999 -999 -999 -999 -999
2008-05-07 07:47:57 51°17.298 2°52.35 -999 -999 -999 -999 -999
2008-05-07 07:48:02 51°17.312 2°52.337 -999 -999 -999 -999 -999
2008-05-07 07:48:07 51°17.326 2°52.323 -999 -999 -999 -999 -999
2008-05-07 07:48:12 51°17.34 2°52.31 -999 -999 -999 -999 -999
2008-05-07 07:48:17 51°17.354 2°52.296 -999 -999 -999 -999 -999
2008-05-07 07:48:22 51°17.368 2°52.283 -999 -999 -999 -999 -999
2008-05-07 07:48:26 51°17.38 2°52.272 -999 -999 -999 -999 -999
2008-05-07 07:48:32 51°17.397 2°52.256 -999 -999 -999 -999 -999
2008-05-07 07:48:37 51°17.41 2°52.242 -999 -999 -999 -999 -999
2008-05-07 07:48:42 51°17.425 2°52.228 -999 -999 -999 -999 -999
2008-05-07 07:48:47 51°17.438 2°52.213 -999 -999 -999 -999 -999
2008-05-07 07:48:52 51°17.452 2°52.199 -999 -999 -999 -999 -999
2008-05-07 07:48:57 51°17.466 2°52.184 -999 -999 -999 -999 -999
2008-05-07 07:49:02 51°17.48 2°52.169 -999 -999 -999 -999 -999
2008-05-07 07:49:07 51°17.493 2°52.155 -999 -999 -999 -999 -999
2008-05-07 07:49:11 51°17.504 2°52.143 -999 -999 -999 -999 -999
2008-05-07 07:49:17 51°17.521 2°52.125 -999 -999 -999 -999 -999
2008-05-07 07:49:22 51°17.534 2°52.11 -999 -999 -999 -999 -999
2008-05-07 07:49:27 51°17.548 2°52.095 -999 -999 -999 -999 -999
2008-05-07 07:49:31 51°17.558 2°52.083 -999 -999 -999 -999 -999
2008-05-07 07:49:37 51°17.574 2°52.064 -999 -999 -999 -999 -999
2008-05-07 07:49:42 51°17.587 2°52.047 -999 -999 -999 -999 -999
2008-05-07 07:49:47 51°17.6 2°52.031 -999 -999 -999 -999 -999
2008-05-07 07:49:52 51°17.613 2°52.013 -999 -999 -999 -999 -999
2008-05-07 07:49:57 51°17.625 2°51.996 -999 -999 -999 -999 -999
2008-05-07 07:50:02 51°17.638 2°51.978 -999 -999 -999 -999 -999
2008-05-07 07:50:07 51°17.65 2°51.961 -999 -999 -999 -999 -999
2008-05-07 07:50:12 51°17.663 2°51.943 -999 -999 -999 -999 -999
2008-05-07 07:50:17 51°17.675 2°51.926 -999 -999 -999 -999 -999
2008-05-07 07:50:22 51°17.688 2°51.908 -999 -999 -999 -999 -999
2008-05-07 07:50:27 51°17.7 2°51.89 -999 -999 -999 -999 -999
2008-05-07 07:50:32 51°17.712 2°51.872 -999 -999 -999 -999 -999
2008-05-07 07:50:37 51°17.725 2°51.854 -999 -999 -999 -999 -999
2008-05-07 07:50:42 51°17.737 2°51.837 -999 -999 -999 -999 -999
2008-05-07 07:50:47 51°17.75 2°51.818 -999 -999 -999 -999 -999
2008-05-07 07:50:52 51°17.762 2°51.8 -999 -999 -999 -999 -999
2008-05-07 07:50:57 51°17.774 2°51.782 -999 -999 -999 -999 -999
2008-05-07 07:51:02 51°17.787 2°51.765 -999 -999 -999 -999 -999
2008-05-07 07:51:07 51°17.8 2°51.748 -999 -999 -999 -999 -999
2008-05-07 07:51:12 51°17.813 2°51.731 -999 -999 -999 -999 -999
2008-05-07 07:51:17 51°17.825 2°51.714 -999 -999 -999 -999 -999
2008-05-07 07:51:22 51°17.838 2°51.697 -999 -999 -999 -999 -999
2008-05-07 07:51:27 51°17.851 2°51.68 -999 -999 -999 -999 -999
2008-05-07 07:51:32 51°17.864 2°51.663 -999 -999 -999 -999 -999
2008-05-07 07:51:37 51°17.877 2°51.646 -999 -999 -999 -999 -999
2008-05-07 07:51:42 51°17.89 2°51.629 -999 -999 -999 -999 -999
2008-05-07 07:51:47 51°17.903 2°51.612 -999 -999 -999 -999 -999
2008-05-07 07:51:51 51°17.913 2°51.599 -999 -999 -999 -999 -999
2008-05-07 07:51:57 51°17.929 2°51.578 -999 -999 -999 -999 -999
2008-05-07 07:52:02 51°17.942 2°51.561 -999 -999 -999 -999 -999
2008-05-07 07:52:07 51°17.955 2°51.544 -999 -999 -999 -999 -999
2008-05-07 07:52:12 51°17.968 2°51.526 -999 -999 -999 -999 -999
2008-05-07 07:52:17 51°17.981 2°51.509 -999 -999 -999 -999 -999
2008-05-07 07:52:22 51°17.994 2°51.492 -999 -999 -999 -999 -999
2008-05-07 07:52:27 51°18.008 2°51.474 -999 -999 -999 -999 -999
2008-05-07 07:52:32 51°18.021 2°51.457 -999 -999 -999 -999 -999
2008-05-07 07:52:37 51°18.034 2°51.44 -999 -999 -999 -999 -999
2008-05-07 07:52:42 51°18.047 2°51.422 -999 -999 -999 -999 -999
2008-05-07 07:52:47 51°18.06 2°51.405 -999 -999 -999 -999 -999
2008-05-07 07:52:52 51°18.073 2°51.387 -999 -999 -999 -999 -999
2008-05-07 07:52:57 51°18.087 2°51.369 -999 -999 -999 -999 -999
2008-05-07 07:53:02 51°18.1 2°51.352 -999 -999 -999 -999 -999
2008-05-07 07:53:06 51°18.11 2°51.338 -999 -999 -999 -999 -999
2008-05-07 07:53:12 51°18.126 2°51.317 -999 -999 -999 -999 -999
2008-05-07 07:53:17 51°18.139 2°51.299 -999 -999 -999 -999 -999
2008-05-07 07:53:22 51°18.152 2°51.281 -999 -999 -999 -999 -999
2008-05-07 07:53:27 51°18.165 2°51.263 -999 -999 -999 -999 -999
2008-05-07 07:53:31 51°18.176 2°51.248 -999 -999 -999 -999 -999
2008-05-07 07:53:37 51°18.191 2°51.227 -999 -999 -999 -999 -999
2008-05-07 07:53:42 51°18.205 2°51.21 -999 -999 -999 -999 -999
2008-05-07 07:53:47 51°18.218 2°51.193 -999 -999 -999 -999 -999
2008-05-07 07:53:52 51°18.232 2°51.177 -999 -999 -999 -999 -999
2008-05-07 07:53:57 51°18.246 2°51.162 -999 -999 -999 -999 -999
2008-05-07 07:54:02 51°18.261 2°51.147 -999 -999 -999 -999 -999
2008-05-07 07:54:07 51°18.275 2°51.133 -999 -999 -999 -999 -999
2008-05-07 07:54:12 51°18.29 2°51.121 -999 -999 -999 -999 -999
2008-05-07 07:54:17 51°18.303 2°51.109 -999 -999 -999 -999 -999
2008-05-07 07:54:22 51°18.316 2°51.099 -999 -999 -999 -999 -999
2008-05-07 07:54:27 51°18.329 2°51.089 -999 -999 -999 -999 -999
2008-05-07 07:54:32 51°18.34 2°51.08 -999 -999 -999 -999 -999
2008-05-07 07:54:37 51°18.351 2°51.073 -999 -999 -999 -999 -999
2008-05-07 07:54:42 51°18.36 2°51.066 -999 -999 -999 -999 -999
2008-05-07 07:54:47 51°18.368 2°51.06 -999 -999 -999 -999 -999
2008-05-07 07:54:52 51°18.376 2°51.055 -999 -999 -999 -999 -999
2008-05-07 07:54:57 51°18.383 2°51.05 -999 -999 -999 -999 -999
2008-05-07 07:55:02 51°18.39 2°51.045 -999 -999 -999 -999 -999
2008-05-07 07:55:07 51°18.396 2°51.041 -999 -999 -999 -999 -999
2008-05-07 07:55:12 51°18.401 2°51.037 -999 -999 -999 -999 -999
2008-05-07 07:55:17 51°18.406 2°51.033 -999 -999 -999 -999 -999
2008-05-07 07:55:22 51°18.411 2°51.029 -999 -999 -999 -999 -999
2008-05-07 07:55:27 51°18.415 2°51.026 -999 -999 -999 -999 -999
2008-05-07 07:55:32 51°18.419 2°51.022 -999 -999 -999 -999 -999
2008-05-07 07:55:37 51°18.423 2°51.019 -999 -999 -999 -999 -999
2008-05-07 07:55:42 51°18.426 2°51.015 -999 -999 -999 -999 -999
2008-05-07 07:55:47 51°18.429 2°51.012 -999 -999 -999 -999 -999
2008-05-07 07:55:51 51°18.431 2°51.01 -999 -999 -999 -999 -999
2008-05-07 07:55:57 51°18.434 2°51.006 -999 -999 -999 -999 -999
2008-05-07 07:56:02 51°18.435 2°51.003 -999 -999 -999 -999 -999
2008-05-07 07:56:07 51°18.436 2°51.001 -999 -999 -999 -999 -999
2008-05-07 07:56:12 51°18.437 2°50.998 -999 -999 -999 -999 -999
2008-05-07 07:56:17 51°18.438 2°50.995 -999 -999 -999 -999 -999
2008-05-07 07:56:22 51°18.438 2°50.993 -999 -999 -999 -999 -999
2008-05-07 07:56:27 51°18.439 2°50.99 -999 -999 -999 -999 -999
2008-05-07 07:56:32 51°18.439 2°50.988 -999 -999 -999 -999 -999
2008-05-07 07:56:37 51°18.44 2°50.985 -999 -999 -999 -999 -999
2008-05-07 07:56:42 51°18.44 2°50.982 -999 -999 -999 -999 -999
2008-05-07 07:56:47 51°18.44 2°50.98 -999 -999 -999 -999 -999
2008-05-07 07:56:52 51°18.441 2°50.977 -999 -999 -999 -999 -999
2008-05-07 07:56:57 51°18.441 2°50.975 -999 -999 -999 -999 -999
2008-05-07 07:57:02 51°18.441 2°50.972 -999 -999 -999 -999 -999
2008-05-07 07:57:07 51°18.441 2°50.97 -999 -999 -999 -999 -999
2008-05-07 07:57:12 51°18.441 2°50.967 -999 -999 -999 -999 -999
2008-05-07 07:57:17 51°18.441 2°50.964 -999 -999 -999 -999 -999
2008-05-07 07:57:22 51°18.441 2°50.962 -999 -999 -999 -999 -999
2008-05-07 07:57:27 51°18.441 2°50.959 -999 -999 -999 -999 -999
2008-05-07 07:57:32 51°18.441 2°50.956 -999 -999 -999 -999 -999
2008-05-07 07:57:37 51°18.44 2°50.953 -999 -999 -999 -999 -999
2008-05-07 07:57:42 51°18.44 2°50.95 -999 -999 -999 -999 -999
2008-05-07 07:57:47 51°18.44 2°50.947 -999 -999 -999 -999 -999
2008-05-07 07:57:52 51°18.44 2°50.944 -999 -999 -999 -999 -999
2008-05-07 07:57:57 51°18.439 2°50.941 -999 -999 -999 -999 -999
2008-05-07 07:58:02 51°18.439 2°50.938 -999 -999 -999 -999 -999
2008-05-07 07:58:07 51°18.44 2°50.935 -999 -999 -999 -999 -999
2008-05-07 07:58:11 51°18.44 2°50.933 -999 -999 -999 -999 -999
2008-05-07 07:58:17 51°18.441 2°50.929 -999 -999 -999 -999 -999
2008-05-07 07:58:22 51°18.442 2°50.926 -999 -999 -999 -999 -999
2008-05-07 07:58:27 51°18.444 2°50.922 -999 -999 -999 -999 -999
2008-05-07 07:58:32 51°18.446 2°50.918 -999 -999 -999 -999 -999
2008-05-07 07:58:37 51°18.448 2°50.912 -999 -999 -999 -999 -999
2008-05-07 07:58:42 51°18.451 2°50.906 -999 -999 -999 -999 -999
2008-05-07 07:58:47 51°18.454 2°50.898 -999 -999 -999 -999 -999
2008-05-07 07:58:52 51°18.458 2°50.888 -999 -999 -999 -999 -999
2008-05-07 07:58:57 51°18.462 2°50.876 -999 -999 -999 -999 -999
2008-05-07 07:59:02 51°18.466 2°50.863 -999 -999 -999 -999 -999
2008-05-07 07:59:07 51°18.47 2°50.848 -999 -999 -999 -999 -999
2008-05-07 07:59:12 51°18.473 2°50.831 -999 -999 -999 -999 -999
2008-05-07 07:59:17 51°18.477 2°50.812 -999 -999 -999 -999 -999
2008-05-07 07:59:22 51°18.479 2°50.792 -999 -999 -999 -999 -999
2008-05-07 07:59:27 51°18.481 2°50.771 -999 -999 -999 -999 -999
2008-05-07 07:59:32 51°18.483 2°50.749 -999 -999 -999 -999 -999
2008-05-07 07:59:37 51°18.483 2°50.726 -999 -999 -999 -999 -999
2008-05-07 07:59:42 51°18.482 2°50.702 -999 -999 -999 -999 -999
2008-05-07 07:59:47 51°18.481 2°50.678 -999 -999 -999 -999 -999
2008-05-07 07:59:52 51°18.478 2°50.653 -999 -999 -999 -999 -999
2008-05-07 07:59:57 51°18.476 2°50.628 -999 -999 -999 -999 -999
2008-05-07 08:00:02 51°18.473 2°50.602 -999 -999 -999 -999 -999
2008-05-07 08:00:07 51°18.47 2°50.576 -999 -999 -999 -999 -999
2008-05-07 08:00:12 51°18.468 2°50.549 -999 -999 -999 -999 -999
2008-05-07 08:00:17 51°18.465 2°50.521 -999 -999 -999 -999 -999
2008-05-07 08:00:22 51°18.461 2°50.493 -999 -999 -999 -999 -999
2008-05-07 08:00:27 51°18.458 2°50.463 -999 -999 -999 -999 -999
2008-05-07 08:00:31 51°18.456 2°50.44 -999 -999 -999 -999 -999
2008-05-07 08:00:37 51°18.452 2°50.404 -999 -999 -999 -999 -999
2008-05-07 08:00:42 51°18.449 2°50.373 -999 -999 -999 -999 -999
2008-05-07 08:00:47 51°18.446 2°50.342 -999 -999 -999 -999 -999
2008-05-07 08:00:52 51°18.442 2°50.311 -999 -999 -999 -999 -999
2008-05-07 08:00:57 51°18.439 2°50.28 -999 -999 -999 -999 -999
2008-05-07 08:01:02 51°18.435 2°50.249 -999 -999 -999 -999 -999
2008-05-07 08:01:07 51°18.432 2°50.218 -999 -999 -999 -999 -999
2008-05-07 08:01:12 51°18.428 2°50.187 -999 -999 -999 -999 -999
2008-05-07 08:01:17 51°18.423 2°50.156 -999 -999 -999 -999 -999
2008-05-07 08:01:22 51°18.419 2°50.125 -999 -999 -999 -999 -999
2008-05-07 08:01:27 51°18.413 2°50.094 -999 -999 -999 -999 -999
2008-05-07 08:01:32 51°18.409 2°50.063 -999 -999 -999 -999 -999
2008-05-07 08:01:37 51°18.403 2°50.032 -999 -999 -999 -999 -999
2008-05-07 08:01:42 51°18.398 2°50.001 -999 -999 -999 -999 -999
2008-05-07 08:01:47 51°18.391 2°49.971 -999 -999 -999 -999 -999
2008-05-07 08:01:52 51°18.386 2°49.94 -999 -999 -999 -999 -999
2008-05-07 08:01:57 51°18.38 2°49.909 -999 -999 -999 -999 -999
2008-05-07 08:02:02 51°18.375 2°49.879 -999 -999 -999 -999 -999
2008-05-07 08:02:07 51°18.369 2°49.848 -999 -999 -999 -999 -999
2008-05-07 08:02:12 51°18.363 2°49.817 -999 -999 -999 -999 -999
2008-05-07 08:02:17 51°18.357 2°49.787 -999 -999 -999 -999 -999
2008-05-07 08:02:22 51°18.352 2°49.756 -999 -999 -999 -999 -999
2008-05-07 08:02:27 51°18.346 2°49.726 -999 -999 -999 -999 -999
2008-05-07 08:02:32 51°18.341 2°49.695 -999 -999 -999 -999 -999
2008-05-07 08:02:37 51°18.335 2°49.665 -999 -999 -999 -999 -999
2008-05-07 08:02:42 51°18.329 2°49.634 -999 -999 -999 -999 -999
2008-05-07 08:02:47 51°18.323 2°49.604 -999 -999 -999 -999 -999
2008-05-07 08:02:51 51°18.319 2°49.579 -999 -999 -999 -999 -999
2008-05-07 08:02:57 51°18.312 2°49.543 -999 -999 -999 -999 -999
2008-05-07 08:03:02 51°18.306 2°49.513 -999 -999 -999 -999 -999
2008-05-07 08:03:07 51°18.3 2°49.483 -999 -999 -999 -999 -999
2008-05-07 08:03:12 51°18.293 2°49.453 -999 -999 -999 -999 -999
2008-05-07 08:03:17 51°18.287 2°49.423 -999 -999 -999 -999 -999
2008-05-07 08:03:22 51°18.28 2°49.394 -999 -999 -999 -999 -999
2008-05-07 08:03:27 51°18.274 2°49.364 -999 -999 -999 -999 -999
2008-05-07 08:03:32 51°18.267 2°49.335 -999 -999 -999 -999 -999
2008-05-07 08:03:37 51°18.261 2°49.305 -999 -999 -999 -999 -999
2008-05-07 08:03:42 51°18.254 2°49.276 -999 -999 -999 -999 -999
2008-05-07 08:03:47 51°18.248 2°49.246 -999 -999 -999 -999 -999
2008-05-07 08:03:52 51°18.241 2°49.217 -999 -999 -999 -999 -999
2008-05-07 08:03:57 51°18.234 2°49.188 -999 -999 -999 -999 -999
2008-05-07 08:04:02 51°18.228 2°49.158 -999 -999 -999 -999 -999
2008-05-07 08:04:07 51°18.222 2°49.128 -999 -999 -999 -999 -999
2008-05-07 08:04:12 51°18.215 2°49.099 -999 -999 -999 -999 -999
2008-05-07 08:04:17 51°18.209 2°49.07 -999 -999 -999 -999 -999
2008-05-07 08:04:22 51°18.202 2°49.041 -999 -999 -999 -999 -999
2008-05-07 08:04:27 51°18.196 2°49.012 -999 -999 -999 -999 -999
2008-05-07 08:04:32 51°18.189 2°48.983 -999 -999 -999 -999 -999
2008-05-07 08:04:37 51°18.184 2°48.954 -999 -999 -999 -999 -999
2008-05-07 08:04:42 51°18.177 2°48.925 -999 -999 -999 -999 -999
2008-05-07 08:04:47 51°18.171 2°48.896 -999 -999 -999 -999 -999
2008-05-07 08:04:52 51°18.165 2°48.867 -999 -999 -999 -999 -999
2008-05-07 08:04:57 51°18.159 2°48.838 -999 -999 -999 -999 -999
2008-05-07 08:05:02 51°18.152 2°48.809 -999 -999 -999 -999 -999
2008-05-07 08:05:07 51°18.146 2°48.78 -999 -999 -999 -999 -999
2008-05-07 08:05:12 51°18.14 2°48.751 -999 -999 -999 -999 -999
2008-05-07 08:05:17 51°18.134 2°48.721 -999 -999 -999 -999 -999
2008-05-07 08:05:22 51°18.128 2°48.692 -999 -999 -999 -999 -999
2008-05-07 08:05:27 51°18.121 2°48.664 -999 -999 -999 -999 -999
2008-05-07 08:05:32 51°18.115 2°48.635 -999 -999 -999 -999 -999
2008-05-07 08:05:37 51°18.109 2°48.606 -999 -999 -999 -999 -999
2008-05-07 08:05:42 51°18.103 2°48.577 -999 -999 -999 -999 -999
2008-05-07 08:05:47 51°18.097 2°48.548 -999 -999 -999 -999 -999
2008-05-07 08:05:52 51°18.092 2°48.518 -999 -999 -999 -999 -999
2008-05-07 08:05:57 51°18.086 2°48.489 -999 -999 -999 -999 -999
2008-05-07 08:06:02 51°18.08 2°48.46 -999 -999 -999 -999 -999
2008-05-07 08:06:07 51°18.074 2°48.431 -999 -999 -999 -999 -999
2008-05-07 08:06:12 51°18.068 2°48.402 -999 -999 -999 -999 -999
2008-05-07 08:06:17 51°18.063 2°48.373 -999 -999 -999 -999 -999
2008-05-07 08:06:22 51°18.056 2°48.344 -999 -999 -999 -999 -999
2008-05-07 08:06:27 51°18.051 2°48.315 -999 -999 -999 -999 -999
2008-05-07 08:06:32 51°18.045 2°48.287 -999 -999 -999 -999 -999
2008-05-07 08:06:37 51°18.039 2°48.258 -999 -999 -999 -999 -999
2008-05-07 08:06:42 51°18.033 2°48.228 -999 -999 -999 -999 -999
2008-05-07 08:06:46 51°18.029 2°48.205 -999 -999 -999 -999 -999
2008-05-07 08:06:52 51°18.022 2°48.17 -999 -999 -999 -999 -999
2008-05-07 08:06:57 51°18.017 2°48.141 -999 -999 -999 -999 -999
2008-05-07 08:07:02 51°18.011 2°48.112 -999 -999 -999 -999 -999
2008-05-07 08:07:07 51°18.007 2°48.083 -999 -999 -999 -999 -999
2008-05-07 08:07:11 51°18.003 2°48.06 -999 -999 -999 -999 -999
2008-05-07 08:07:17 51°17.997 2°48.024 -999 -999 -999 -999 -999
2008-05-07 08:07:22 51°17.993 2°47.995 -999 -999 -999 -999 -999
2008-05-07 08:07:27 51°17.988 2°47.966 -999 -999 -999 -999 -999
2008-05-07 08:07:32 51°17.983 2°47.937 -999 -999 -999 -999 -999
2008-05-07 08:07:37 51°17.979 2°47.907 -999 -999 -999 -999 -999
2008-05-07 08:07:42 51°17.974 2°47.877 -999 -999 -999 -999 -999
2008-05-07 08:07:47 51°17.969 2°47.848 -999 -999 -999 -999 -999
2008-05-07 08:07:52 51°17.964 2°47.818 -999 -999 -999 -999 -999
2008-05-07 08:07:57 51°17.96 2°47.789 -999 -999 -999 -999 -999
2008-05-07 08:08:02 51°17.955 2°47.76 -999 -999 -999 -999 -999
2008-05-07 08:08:07 51°17.95 2°47.73 -999 -999 -999 -999 -999
2008-05-07 08:08:12 51°17.945 2°47.701 -999 -999 -999 -999 -999
2008-05-07 08:08:17 51°17.939 2°47.672 -999 -999 -999 -999 -999
2008-05-07 08:08:22 51°17.934 2°47.643 -999 -999 -999 -999 -999
2008-05-07 08:08:27 51°17.928 2°47.614 -999 -999 -999 -999 -999
2008-05-07 08:08:32 51°17.922 2°47.586 -999 -999 -999 -999 -999
2008-05-07 08:08:37 51°17.916 2°47.557 -999 -999 -999 -999 -999
2008-05-07 08:08:42 51°17.909 2°47.529 -999 -999 -999 -999 -999
2008-05-07 08:08:46 51°17.904 2°47.506 -999 -999 -999 -999 -999
2008-05-07 08:08:52 51°17.895 2°47.473 -999 -999 -999 -999 -999
2008-05-07 08:08:57 51°17.889 2°47.444 -999 -999 -999 -999 -999
2008-05-07 08:09:02 51°17.882 2°47.416 -999 -999 -999 -999 -999
2008-05-07 08:09:07 51°17.875 2°47.388 -999 -999 -999 -999 -999
2008-05-07 08:09:11 51°17.869 2°47.366 -999 -999 -999 -999 -999
2008-05-07 08:09:17 51°17.861 2°47.333 -999 -999 -999 -999 -999
2008-05-07 08:09:22 51°17.854 2°47.305 -999 -999 -999 -999 -999
2008-05-07 08:09:27 51°17.847 2°47.277 -999 -999 -999 -999 -999
2008-05-07 08:09:32 51°17.84 2°47.25 -999 -999 -999 -999 -999
2008-05-07 08:09:37 51°17.833 2°47.222 -999 -999 -999 -999 -999
2008-05-07 08:09:42 51°17.826 2°47.194 -999 -999 -999 -999 -999
2008-05-07 08:09:47 51°17.819 2°47.166 -999 -999 -999 -999 -999
2008-05-07 08:09:52 51°17.812 2°47.138 -999 -999 -999 -999 -999
2008-05-07 08:09:57 51°17.805 2°47.111 -999 -999 -999 -999 -999
2008-05-07 08:10:02 51°17.799 2°47.083 -999 -999 -999 -999 -999
2008-05-07 08:10:07 51°17.791 2°47.055 -999 -999 -999 -999 -999
2008-05-07 08:10:12 51°17.785 2°47.026 -999 -999 -999 -999 -999
2008-05-07 08:10:17 51°17.778 2°46.998 -999 -999 -999 -999 -999
2008-05-07 08:10:22 51°17.771 2°46.97 -999 -999 -999 -999 -999
2008-05-07 08:10:27 51°17.764 2°46.941 -999 -999 -999 -999 -999
2008-05-07 08:10:32 51°17.757 2°46.913 -999 -999 -999 -999 -999
2008-05-07 08:10:37 51°17.751 2°46.885 -999 -999 -999 -999 -999
2008-05-07 08:10:42 51°17.745 2°46.856 -999 -999 -999 -999 -999
2008-05-07 08:10:47 51°17.738 2°46.828 -999 -999 -999 -999 -999
2008-05-07 08:10:52 51°17.733 2°46.799 -999 -999 -999 -999 -999
2008-05-07 08:10:57 51°17.726 2°46.77 -999 -999 -999 -999 -999
2008-05-07 08:11:02 51°17.721 2°46.741 -999 -999 -999 -999 -999
2008-05-07 08:11:07 51°17.714 2°46.712 -999 -999 -999 -999 -999
2008-05-07 08:11:12 51°17.708 2°46.683 -999 -999 -999 -999 -999
2008-05-07 08:11:17 51°17.7 2°46.655 -999 -999 -999 -999 -999
2008-05-07 08:11:22 51°17.693 2°46.627 -999 -999 -999 -999 -999
2008-05-07 08:11:27 51°17.685 2°46.599 -999 -999 -999 -999 -999
2008-05-07 08:11:31 51°17.678 2°46.578 -999 -999 -999 -999 -999
2008-05-07 08:11:37 51°17.667 2°46.546 -999 -999 -999 -999 -999
2008-05-07 08:11:42 51°17.657 2°46.52 -999 -999 -999 -999 -999
2008-05-07 08:11:47 51°17.646 2°46.494 -999 -999 -999 -999 -999
2008-05-07 08:11:52 51°17.635 2°46.469 -999 -999 -999 -999 -999
2008-05-07 08:11:57 51°17.624 2°46.444 -999 -999 -999 -999 -999
2008-05-07 08:12:02 51°17.612 2°46.421 -999 -999 -999 -999 -999
2008-05-07 08:12:07 51°17.6 2°46.396 -999 -999 -999 -999 -999
2008-05-07 08:12:12 51°17.587 2°46.374 -999 -999 -999 -999 -999
2008-05-07 08:12:17 51°17.574 2°46.352 -999 -999 -999 -999 -999
2008-05-07 08:12:22 51°17.56 2°46.33 -999 -999 -999 -999 -999
2008-05-07 08:12:27 51°17.547 2°46.309 -999 -999 -999 -999 -999
2008-05-07 08:12:32 51°17.532 2°46.288 -999 -999 -999 -999 -999
2008-05-07 08:12:37 51°17.519 2°46.266 -999 -999 -999 -999 -999
2008-05-07 08:12:42 51°17.504 2°46.247 -999 -999 -999 -999 -999
2008-05-07 08:12:47 51°17.49 2°46.225 -999 -999 -999 -999 -999
2008-05-07 08:12:52 51°17.475 2°46.206 -999 -999 -999 -999 -999
2008-05-07 08:12:57 51°17.46 2°46.187 -999 -999 -999 -999 -999
2008-05-07 08:13:02 51°17.446 2°46.167 -999 -999 -999 -999 -999
2008-05-07 08:13:07 51°17.431 2°46.148 -999 -999 -999 -999 -999
2008-05-07 08:13:12 51°17.416 2°46.129 -999 -999 -999 -999 -999
2008-05-07 08:13:17 51°17.401 2°46.111 -999 -999 -999 -999 -999
2008-05-07 08:13:22 51°17.386 2°46.091 -999 -999 -999 -999 -999
2008-05-07 08:13:27 51°17.371 2°46.072 -999 -999 -999 -999 -999
2008-05-07 08:13:32 51°17.356 2°46.053 -999 -999 -999 -999 -999
2008-05-07 08:13:37 51°17.341 2°46.034 -999 -999 -999 -999 -999
2008-05-07 08:13:42 51°17.326 2°46.016 -999 -999 -999 -999 -999
2008-05-07 08:13:47 51°17.311 2°45.996 -999 -999 -999 -999 -999
2008-05-07 08:13:52 51°17.296 2°45.977 -999 -999 -999 -999 -999
2008-05-07 08:13:57 51°17.282 2°45.957 -999 -999 -999 -999 -999
2008-05-07 08:14:02 51°17.268 2°45.937 -999 -999 -999 -999 -999
2008-05-07 08:14:07 51°17.253 2°45.917 -999 -999 -999 -999 -999
2008-05-07 08:14:12 51°17.238 2°45.897 -999 -999 -999 -999 -999
2008-05-07 08:14:17 51°17.223 2°45.877 -999 -999 -999 -999 -999
2008-05-07 08:14:22 51°17.209 2°45.857 -999 -999 -999 -999 -999
2008-05-07 08:14:27 51°17.194 2°45.837 -999 -999 -999 -999 -999
2008-05-07 08:14:32 51°17.18 2°45.818 -999 -999 -999 -999 -999
2008-05-07 08:14:37 51°17.165 2°45.799 -999 -999 -999 -999 -999
2008-05-07 08:14:42 51°17.15 2°45.78 -999 -999 -999 -999 -999
2008-05-07 08:14:47 51°17.136 2°45.76 -999 -999 -999 -999 -999
2008-05-07 08:14:52 51°17.121 2°45.741 -999 -999 -999 -999 -999
2008-05-07 08:14:57 51°17.106 2°45.721 -999 -999 -999 -999 -999
2008-05-07 08:15:02 51°17.092 2°45.701 -999 -999 -999 -999 -999
2008-05-07 08:15:07 51°17.077 2°45.682 -999 -999 -999 -999 -999
2008-05-07 08:15:12 51°17.063 2°45.663 -999 -999 -999 -999 -999
2008-05-07 08:15:17 51°17.048 2°45.643 -999 -999 -999 -999 -999
2008-05-07 08:15:22 51°17.033 2°45.624 -999 -999 -999 -999 -999
2008-05-07 08:15:27 51°17.019 2°45.603 -999 -999 -999 -999 -999
2008-05-07 08:15:32 51°17.004 2°45.585 -999 -999 -999 -999 -999
2008-05-07 08:15:37 51°16.99 2°45.564 -999 -999 -999 -999 -999
2008-05-07 08:15:42 51°16.975 2°45.546 -999 -999 -999 -999 -999
2008-05-07 08:15:47 51°16.96 2°45.526 -999 -999 -999 -999 -999
2008-05-07 08:15:52 51°16.946 2°45.507 -999 -999 -999 -999 -999
2008-05-07 08:15:57 51°16.931 2°45.487 -999 -999 -999 -999 -999
2008-05-07 08:16:02 51°16.916 2°45.468 -999 -999 -999 -999 -999
2008-05-07 08:16:07 51°16.902 2°45.449 -999 -999 -999 -999 -999
2008-05-07 08:16:12 51°16.887 2°45.43 -999 -999 -999 -999 -999
2008-05-07 08:16:17 51°16.872 2°45.41 -999 -999 -999 -999 -999
2008-05-07 08:16:22 51°16.858 2°45.39 -999 -999 -999 -999 -999
2008-05-07 08:16:27 51°16.843 2°45.371 -999 -999 -999 -999 -999
2008-05-07 08:16:31 51°16.831 2°45.355 -999 -999 -999 -999 -999
2008-05-07 08:16:37 51°16.814 2°45.332 -999 -999 -999 -999 -999
2008-05-07 08:16:42 51°16.799 2°45.312 -999 -999 -999 -999 -999
2008-05-07 08:16:47 51°16.784 2°45.293 -999 -999 -999 -999 -999
2008-05-07 08:16:52 51°16.77 2°45.273 -999 -999 -999 -999 -999
2008-05-07 08:16:57 51°16.756 2°45.254 -999 -999 -999 -999 -999
2008-05-07 08:17:02 51°16.741 2°45.234 -999 -999 -999 -999 -999
2008-05-07 08:17:07 51°16.727 2°45.216 -999 -999 -999 -999 -999
2008-05-07 08:17:12 51°16.712 2°45.196 -999 -999 -999 -999 -999
2008-05-07 08:17:17 51°16.698 2°45.177 -999 -999 -999 -999 -999
2008-05-07 08:17:22 51°16.684 2°45.157 -999 -999 -999 -999 -999
2008-05-07 08:17:27 51°16.669 2°45.138 -999 -999 -999 -999 -999
2008-05-07 08:17:32 51°16.655 2°45.119 -999 -999 -999 -999 -999
2008-05-07 08:17:37 51°16.64 2°45.099 -999 -999 -999 -999 -999
2008-05-07 08:17:42 51°16.626 2°45.08 -999 -999 -999 -999 -999
2008-05-07 08:17:47 51°16.612 2°45.061 -999 -999 -999 -999 -999
2008-05-07 08:17:52 51°16.598 2°45.042 -999 -999 -999 -999 -999
2008-05-07 08:17:57 51°16.583 2°45.022 -999 -999 -999 -999 -999
2008-05-07 08:18:02 51°16.569 2°45.003 -999 -999 -999 -999 -999
2008-05-07 08:18:07 51°16.554 2°44.983 -999 -999 -999 -999 -999
2008-05-07 08:18:12 51°16.54 2°44.963 -999 -999 -999 -999 -999
2008-05-07 08:18:17 51°16.525 2°44.944 -999 -999 -999 -999 -999
2008-05-07 08:18:22 51°16.511 2°44.925 -999 -999 -999 -999 -999
2008-05-07 08:18:27 51°16.497 2°44.905 -999 -999 -999 -999 -999
2008-05-07 08:18:31 51°16.486 2°44.889 -999 -999 -999 -999 -999
2008-05-07 08:18:37 51°16.468 2°44.867 -999 -999 -999 -999 -999
2008-05-07 08:18:42 51°16.455 2°44.847 -999 -999 -999 -999 -999
2008-05-07 08:18:47 51°16.44 2°44.828 -999 -999 -999 -999 -999
2008-05-07 08:18:52 51°16.427 2°44.809 -999 -999 -999 -999 -999
2008-05-07 08:18:57 51°16.413 2°44.79 -999 -999 -999 -999 -999
2008-05-07 08:19:02 51°16.398 2°44.77 -999 -999 -999 -999 -999
2008-05-07 08:19:07 51°16.384 2°44.751 -999 -999 -999 -999 -999
2008-05-07 08:19:12 51°16.37 2°44.731 -999 -999 -999 -999 -999
2008-05-07 08:19:17 51°16.356 2°44.711 -999 -999 -999 -999 -999
2008-05-07 08:19:22 51°16.342 2°44.692 -999 -999 -999 -999 -999
2008-05-07 08:19:27 51°16.328 2°44.673 -999 -999 -999 -999 -999
2008-05-07 08:19:32 51°16.314 2°44.653 -999 -999 -999 -999 -999
2008-05-07 08:19:37 51°16.299 2°44.634 -999 -999 -999 -999 -999
2008-05-07 08:19:42 51°16.286 2°44.613 -999 -999 -999 -999 -999
2008-05-07 08:19:47 51°16.271 2°44.594 -999 -999 -999 -999 -999
2008-05-07 08:19:52 51°16.258 2°44.573 -999 -999 -999 -999 -999
2008-05-07 08:19:57 51°16.244 2°44.553 -999 -999 -999 -999 -999
2008-05-07 08:20:02 51°16.231 2°44.532 -999 -999 -999 -999 -999
2008-05-07 08:20:07 51°16.217 2°44.511 -999 -999 -999 -999 -999
2008-05-07 08:20:12 51°16.204 2°44.49 -999 -999 -999 -999 -999
2008-05-07 08:20:17 51°16.189 2°44.47 -999 -999 -999 -999 -999
2008-05-07 08:20:22 51°16.176 2°44.449 -999 -999 -999 -999 -999
2008-05-07 08:20:27 51°16.163 2°44.428 -999 -999 -999 -999 -999
2008-05-07 08:20:32 51°16.149 2°44.408 -999 -999 -999 -999 -999
2008-05-07 08:20:37 51°16.135 2°44.387 -999 -999 -999 -999 -999
2008-05-07 08:20:42 51°16.122 2°44.367 -999 -999 -999 -999 -999
2008-05-07 08:20:47 51°16.108 2°44.346 -999 -999 -999 -999 -999
2008-05-07 08:20:51 51°16.097 2°44.33 -999 -999 -999 -999 -999
2008-05-07 08:20:57 51°16.08 2°44.305 -999 -999 -999 -999 -999
2008-05-07 08:21:02 51°16.067 2°44.284 -999 -999 -999 -999 -999
2008-05-07 08:21:07 51°16.053 2°44.264 -999 -999 -999 -999 -999
2008-05-07 08:21:12 51°16.039 2°44.243 -999 -999 -999 -999 -999
2008-05-07 08:21:17 51°16.026 2°44.221 -999 -999 -999 -999 -999
2008-05-07 08:21:22 51°16.012 2°44.201 -999 -999 -999 -999 -999
2008-05-07 08:21:27 51°15.999 2°44.181 -999 -999 -999 -999 -999
2008-05-07 08:21:32 51°15.984 2°44.161 -999 -999 -999 -999 -999
2008-05-07 08:21:37 51°15.97 2°44.141 -999 -999 -999 -999 -999
2008-05-07 08:21:42 51°15.956 2°44.122 -999 -999 -999 -999 -999
2008-05-07 08:21:47 51°15.941 2°44.103 -999 -999 -999 -999 -999
2008-05-07 08:21:52 51°15.927 2°44.083 -999 -999 -999 -999 -999
2008-05-07 08:21:57 51°15.912 2°44.064 -999 -999 -999 -999 -999
2008-05-07 08:22:02 51°15.897 2°44.045 -999 -999 -999 -999 -999
2008-05-07 08:22:07 51°15.883 2°44.026 -999 -999 -999 -999 -999
2008-05-07 08:22:12 51°15.868 2°44.007 -999 -999 -999 -999 -999
2008-05-07 08:22:17 51°15.854 2°43.988 -999 -999 -999 -999 -999
2008-05-07 08:22:22 51°15.839 2°43.969 -999 -999 -999 -999 -999
2008-05-07 08:22:27 51°15.825 2°43.949 -999 -999 -999 -999 -999
2008-05-07 08:22:32 51°15.81 2°43.93 -999 -999 -999 -999 -999
2008-05-07 08:22:37 51°15.796 2°43.91 -999 -999 -999 -999 -999
2008-05-07 08:22:42 51°15.783 2°43.889 -999 -999 -999 -999 -999
2008-05-07 08:22:47 51°15.768 2°43.869 -999 -999 -999 -999 -999
2008-05-07 08:22:51 51°15.758 2°43.852 -999 -999 -999 -999 -999
2008-05-07 08:22:57 51°15.741 2°43.827 -999 -999 -999 -999 -999
2008-05-07 08:23:02 51°15.727 2°43.806 -999 -999 -999 -999 -999
2008-05-07 08:23:07 51°15.713 2°43.786 -999 -999 -999 -999 -999
2008-05-07 08:23:12 51°15.699 2°43.766 -999 -999 -999 -999 -999
2008-05-07 08:23:17 51°15.685 2°43.745 -999 -999 -999 -999 -999
2008-05-07 08:23:22 51°15.671 2°43.726 -999 -999 -999 -999 -999
2008-05-07 08:23:27 51°15.657 2°43.705 -999 -999 -999 -999 -999
2008-05-07 08:23:32 51°15.643 2°43.685 -999 -999 -999 -999 -999
2008-05-07 08:23:37 51°15.628 2°43.665 -999 -999 -999 -999 -999
2008-05-07 08:23:42 51°15.614 2°43.646 -999 -999 -999 -999 -999
2008-05-07 08:23:47 51°15.6 2°43.626 -999 -999 -999 -999 -999
2008-05-07 08:23:52 51°15.585 2°43.607 -999 -999 -999 -999 -999
2008-05-07 08:23:57 51°15.571 2°43.585 -999 -999 -999 -999 -999
2008-05-07 08:24:02 51°15.557 2°43.566 -999 -999 -999 -999 -999
2008-05-07 08:24:07 51°15.543 2°43.545 -999 -999 -999 -999 -999
2008-05-07 08:24:12 51°15.529 2°43.524 -999 -999 -999 -999 -999
2008-05-07 08:24:17 51°15.516 2°43.503 -999 -999 -999 -999 -999
2008-05-07 08:24:22 51°15.502 2°43.482 -999 -999 -999 -999 -999
2008-05-07 08:24:27 51°15.488 2°43.461 -999 -999 -999 -999 -999
2008-05-07 08:24:32 51°15.474 2°43.44 -999 -999 -999 -999 -999
2008-05-07 08:24:37 51°15.46 2°43.42 -999 -999 -999 -999 -999
2008-05-07 08:24:42 51°15.447 2°43.399 -999 -999 -999 -999 -999
2008-05-07 08:24:47 51°15.433 2°43.378 -999 -999 -999 -999 -999
2008-05-07 08:24:52 51°15.419 2°43.357 -999 -999 -999 -999 -999
2008-05-07 08:24:57 51°15.405 2°43.335 -999 -999 -999 -999 -999
2008-05-07 08:25:02 51°15.392 2°43.315 -999 -999 -999 -999 -999
2008-05-07 08:25:07 51°15.378 2°43.293 -999 -999 -999 -999 -999
2008-05-07 08:25:11 51°15.367 2°43.277 -999 -999 -999 -999 -999
2008-05-07 08:25:17 51°15.351 2°43.251 -999 -999 -999 -999 -999
2008-05-07 08:25:22 51°15.336 2°43.231 -999 -999 -999 -999 -999
2008-05-07 08:25:27 51°15.323 2°43.21 -999 -999 -999 -999 -999
2008-05-07 08:25:32 51°15.308 2°43.191 -999 -999 -999 -999 -999
2008-05-07 08:25:37 51°15.294 2°43.17 -999 -999 -999 -999 -999
2008-05-07 08:25:42 51°15.279 2°43.151 -999 -999 -999 -999 -999
2008-05-07 08:25:47 51°15.265 2°43.13 -999 -999 -999 -999 -999
2008-05-07 08:25:52 51°15.251 2°43.111 -999 -999 -999 -999 -999
2008-05-07 08:25:57 51°15.236 2°43.092 -999 -999 -999 -999 -999
2008-05-07 08:26:02 51°15.222 2°43.071 -999 -999 -999 -999 -999
2008-05-07 08:26:07 51°15.208 2°43.052 -999 -999 -999 -999 -999
2008-05-07 08:26:12 51°15.193 2°43.032 -999 -999 -999 -999 -999
2008-05-07 08:26:17 51°15.179 2°43.012 -999 -999 -999 -999 -999
2008-05-07 08:26:22 51°15.165 2°42.991 -999 -999 -999 -999 -999
2008-05-07 08:26:27 51°15.15 2°42.972 -999 -999 -999 -999 -999
2008-05-07 08:26:32 51°15.136 2°42.951 -999 -999 -999 -999 -999
2008-05-07 08:26:37 51°15.122 2°42.932 -999 -999 -999 -999 -999
2008-05-07 08:26:42 51°15.107 2°42.912 -999 -999 -999 -999 -999
2008-05-07 08:26:47 51°15.093 2°42.892 -999 -999 -999 -999 -999
2008-05-07 08:26:52 51°15.079 2°42.872 -999 -999 -999 -999 -999
2008-05-07 08:26:57 51°15.065 2°42.852 -999 -999 -999 -999 -999
2008-05-07 08:27:02 51°15.05 2°42.832 -999 -999 -999 -999 -999
2008-05-07 08:27:07 51°15.036 2°42.812 -999 -999 -999 -999 -999
2008-05-07 08:27:12 51°15.022 2°42.792 -999 -999 -999 -999 -999
2008-05-07 08:27:17 51°15.008 2°42.771 -999 -999 -999 -999 -999
2008-05-07 08:27:22 51°14.993 2°42.752 -999 -999 -999 -999 -999
2008-05-07 08:27:27 51°14.979 2°42.731 -999 -999 -999 -999 -999
2008-05-07 08:27:32 51°14.965 2°42.711 -999 -999 -999 -999 -999
2008-05-07 08:27:37 51°14.951 2°42.69 -999 -999 -999 -999 -999
2008-05-07 08:27:42 51°14.937 2°42.67 -999 -999 -999 -999 -999
2008-05-07 08:27:47 51°14.923 2°42.65 -999 -999 -999 -999 -999
2008-05-07 08:27:52 51°14.909 2°42.629 -999 -999 -999 -999 -999
2008-05-07 08:27:57 51°14.895 2°42.609 -999 -999 -999 -999 -999
2008-05-07 08:28:02 51°14.881 2°42.588 -999 -999 -999 -999 -999
2008-05-07 08:28:07 51°14.867 2°42.568 -999 -999 -999 -999 -999
2008-05-07 08:28:12 51°14.852 2°42.547 -999 -999 -999 -999 -999
2008-05-07 08:28:17 51°14.839 2°42.526 -999 -999 -999 -999 -999
2008-05-07 08:28:22 51°14.824 2°42.506 -999 -999 -999 -999 -999
2008-05-07 08:28:27 51°14.811 2°42.485 -999 -999 -999 -999 -999
2008-05-07 08:28:32 51°14.796 2°42.465 -999 -999 -999 -999 -999
2008-05-07 08:28:37 51°14.782 2°42.444 -999 -999 -999 -999 -999
2008-05-07 08:28:42 51°14.769 2°42.423 -999 -999 -999 -999 -999
2008-05-07 08:28:47 51°14.755 2°42.402 -999 -999 -999 -999 -999
2008-05-07 08:28:52 51°14.741 2°42.381 -999 -999 -999 -999 -999
2008-05-07 08:28:57 51°14.727 2°42.36 -999 -999 -999 -999 -999
2008-05-07 08:29:02 51°14.713 2°42.339 -999 -999 -999 -999 -999
2008-05-07 08:29:07 51°14.699 2°42.318 -999 -999 -999 -999 -999
2008-05-07 08:29:12 51°14.685 2°42.298 -999 -999 -999 -999 -999
2008-05-07 08:29:17 51°14.671 2°42.277 -999 -999 -999 -999 -999
2008-05-07 08:29:22 51°14.657 2°42.256 -999 -999 -999 -999 -999
2008-05-07 08:29:27 51°14.643 2°42.235 -999 -999 -999 -999 -999
2008-05-07 08:29:32 51°14.629 2°42.214 -999 -999 -999 -999 -999
2008-05-07 08:29:37 51°14.615 2°42.193 -999 -999 -999 -999 -999
2008-05-07 08:29:42 51°14.602 2°42.172 -999 -999 -999 -999 -999
2008-05-07 08:29:47 51°14.588 2°42.151 -999 -999 -999 -999 -999
2008-05-07 08:29:52 51°14.574 2°42.13 -999 -999 -999 -999 -999
2008-05-07 08:29:57 51°14.56 2°42.109 -999 -999 -999 -999 -999
2008-05-07 08:30:02 51°14.546 2°42.088 -999 -999 -999 -999 -999
2008-05-07 08:30:07 51°14.532 2°42.067 -999 -999 -999 -999 -999
2008-05-07 08:30:12 51°14.518 2°42.046 -999 -999 -999 -999 -999
2008-05-07 08:30:17 51°14.504 2°42.025 -999 -999 -999 -999 -999
2008-05-07 08:30:22 51°14.49 2°42.004 -999 -999 -999 -999 -999
2008-05-07 08:30:27 51°14.476 2°41.984 -999 -999 -999 -999 -999
2008-05-07 08:30:32 51°14.462 2°41.963 -999 -999 -999 -999 -999
2008-05-07 08:30:37 51°14.448 2°41.941 -999 -999 -999 -999 -999
2008-05-07 08:30:42 51°14.434 2°41.921 -999 -999 -999 -999 -999
2008-05-07 08:30:47 51°14.42 2°41.899 -999 -999 -999 -999 -999
2008-05-07 08:30:52 51°14.406 2°41.878 -999 -999 -999 -999 -999
2008-05-07 08:30:57 51°14.392 2°41.857 -999 -999 -999 -999 -999
2008-05-07 08:31:02 51°14.379 2°41.835 -999 -999 -999 -999 -999
2008-05-07 08:31:07 51°14.364 2°41.815 -999 -999 -999 -999 -999
2008-05-07 08:31:12 51°14.351 2°41.792 -999 -999 -999 -999 -999
2008-05-07 08:31:17 51°14.337 2°41.771 -999 -999 -999 -999 -999
2008-05-07 08:31:22 51°14.324 2°41.748 -999 -999 -999 -999 -999
2008-05-07 08:31:27 51°14.311 2°41.727 -999 -999 -999 -999 -999
2008-05-07 08:31:32 51°14.298 2°41.704 -999 -999 -999 -999 -999
2008-05-07 08:31:37 51°14.284 2°41.682 -999 -999 -999 -999 -999
2008-05-07 08:31:42 51°14.271 2°41.659 -999 -999 -999 -999 -999
2008-05-07 08:31:47 51°14.257 2°41.637 -999 -999 -999 -999 -999
2008-05-07 08:31:52 51°14.245 2°41.614 -999 -999 -999 -999 -999
2008-05-07 08:31:57 51°14.23 2°41.593 -999 -999 -999 -999 -999
2008-05-07 08:32:02 51°14.218 2°41.57 -999 -999 -999 -999 -999
2008-05-07 08:32:07 51°14.204 2°41.549 -999 -999 -999 -999 -999
2008-05-07 08:32:12 51°14.19 2°41.526 -999 -999 -999 -999 -999
2008-05-07 08:32:17 51°14.177 2°41.504 -999 -999 -999 -999 -999
2008-05-07 08:32:22 51°14.163 2°41.483 -999 -999 -999 -999 -999
2008-05-07 08:32:27 51°14.15 2°41.46 -999 -999 -999 -999 -999
2008-05-07 08:32:32 51°14.136 2°41.438 -999 -999 -999 -999 -999
2008-05-07 08:32:37 51°14.123 2°41.416 -999 -999 -999 -999 -999
2008-05-07 08:32:42 51°14.109 2°41.394 -999 -999 -999 -999 -999
2008-05-07 08:32:47 51°14.096 2°41.371 -999 -999 -999 -999 -999
2008-05-07 08:32:52 51°14.082 2°41.35 -999 -999 -999 -999 -999
2008-05-07 08:32:57 51°14.069 2°41.327 -999 -999 -999 -999 -999
2008-05-07 08:33:02 51°14.055 2°41.306 -999 -999 -999 -999 -999
2008-05-07 08:33:07 51°14.042 2°41.283 -999 -999 -999 -999 -999
2008-05-07 08:33:12 51°14.028 2°41.261 -999 -999 -999 -999 -999
2008-05-07 08:33:17 51°14.015 2°41.238 -999 -999 -999 -999 -999
2008-05-07 08:33:22 51°14.001 2°41.216 -999 -999 -999 -999 -999
2008-05-07 08:33:27 51°13.987 2°41.195 -999 -999 -999 -999 -999
2008-05-07 08:33:32 51°13.974 2°41.172 -999 -999 -999 -999 -999
2008-05-07 08:33:37 51°13.96 2°41.151 -999 -999 -999 -999 -999
2008-05-07 08:33:42 51°13.946 2°41.13 -999 -999 -999 -999 -999
2008-05-07 08:33:47 51°13.932 2°41.108 -999 -999 -999 -999 -999
2008-05-07 08:33:52 51°13.918 2°41.087 -999 -999 -999 -999 -999
2008-05-07 08:33:57 51°13.904 2°41.065 -999 -999 -999 -999 -999
2008-05-07 08:34:02 51°13.89 2°41.043 -999 -999 -999 -999 -999
2008-05-07 08:34:07 51°13.877 2°41.021 -999 -999 -999 -999 -999
2008-05-07 08:34:12 51°13.862 2°41 -999 -999 -999 -999 -999
2008-05-07 08:34:17 51°13.849 2°40.977 -999 -999 -999 -999 -999
2008-05-07 08:34:22 51°13.835 2°40.957 -999 -999 -999 -999 -999
2008-05-07 08:34:27 51°13.82 2°40.935 -999 -999 -999 -999 -999
2008-05-07 08:34:31 51°13.809 2°40.918 -999 -999 -999 -999 -999
2008-05-07 08:34:37 51°13.792 2°40.892 -999 -999 -999 -999 -999
2008-05-07 08:34:42 51°13.779 2°40.869 -999 -999 -999 -999 -999
2008-05-07 08:34:47 51°13.764 2°40.848 -999 -999 -999 -999 -999
2008-05-07 08:34:52 51°13.75 2°40.826 -999 -999 -999 -999 -999
2008-05-07 08:34:57 51°13.737 2°40.804 -999 -999 -999 -999 -999
2008-05-07 08:35:02 51°13.723 2°40.781 -999 -999 -999 -999 -999
2008-05-07 08:35:07 51°13.709 2°40.76 -999 -999 -999 -999 -999
2008-05-07 08:35:12 51°13.695 2°40.737 -999 -999 -999 -999 -999
2008-05-07 08:35:17 51°13.681 2°40.715 -999 -999 -999 -999 -999
2008-05-07 08:35:22 51°13.668 2°40.692 -999 -999 -999 -999 -999
2008-05-07 08:35:27 51°13.654 2°40.67 -999 -999 -999 -999 -999
2008-05-07 08:35:32 51°13.641 2°40.648 -999 -999 -999 -999 -999
2008-05-07 08:35:37 51°13.627 2°40.626 -999 -999 -999 -999 -999
2008-05-07 08:35:42 51°13.613 2°40.604 -999 -999 -999 -999 -999
2008-05-07 08:35:47 51°13.599 2°40.583 -999 -999 -999 -999 -999
2008-05-07 08:35:52 51°13.585 2°40.561 -999 -999 -999 -999 -999
2008-05-07 08:35:57 51°13.57 2°40.54 -999 -999 -999 -999 -999
2008-05-07 08:36:02 51°13.556 2°40.519 -999 -999 -999 -999 -999
2008-05-07 08:36:07 51°13.542 2°40.498 -999 -999 -999 -999 -999
2008-05-07 08:36:12 51°13.527 2°40.477 -999 -999 -999 -999 -999
2008-05-07 08:36:17 51°13.513 2°40.456 -999 -999 -999 -999 -999
2008-05-07 08:36:22 51°13.499 2°40.435 -999 -999 -999 -999 -999
2008-05-07 08:36:27 51°13.484 2°40.414 -999 -999 -999 -999 -999
2008-05-07 08:36:32 51°13.47 2°40.393 -999 -999 -999 -999 -999
2008-05-07 08:36:37 51°13.456 2°40.372 -999 -999 -999 -999 -999
2008-05-07 08:36:42 51°13.442 2°40.35 -999 -999 -999 -999 -999
2008-05-07 08:36:47 51°13.428 2°40.328 -999 -999 -999 -999 -999
2008-05-07 08:36:52 51°13.414 2°40.307 -999 -999 -999 -999 -999
2008-05-07 08:36:57 51°13.401 2°40.284 -999 -999 -999 -999 -999
2008-05-07 08:37:02 51°13.387 2°40.262 -999 -999 -999 -999 -999
2008-05-07 08:37:07 51°13.374 2°40.24 -999 -999 -999 -999 -999
2008-05-07 08:37:12 51°13.36 2°40.218 -999 -999 -999 -999 -999
2008-05-07 08:37:17 51°13.346 2°40.196 -999 -999 -999 -999 -999
2008-05-07 08:37:22 51°13.332 2°40.175 -999 -999 -999 -999 -999
2008-05-07 08:37:27 51°13.319 2°40.152 -999 -999 -999 -999 -999
2008-05-07 08:37:32 51°13.305 2°40.131 -999 -999 -999 -999 -999
2008-05-07 08:37:37 51°13.291 2°40.109 -999 -999 -999 -999 -999
2008-05-07 08:37:42 51°13.278 2°40.087 -999 -999 -999 -999 -999
2008-05-07 08:37:47 51°13.264 2°40.065 -999 -999 -999 -999 -999
2008-05-07 08:37:52 51°13.251 2°40.043 -999 -999 -999 -999 -999
2008-05-07 08:37:57 51°13.237 2°40.022 -999 -999 -999 -999 -999
2008-05-07 08:38:02 51°13.223 2°40 -999 -999 -999 -999 -999
2008-05-07 08:38:07 51°13.209 2°39.978 -999 -999 -999 -999 -999
2008-05-07 08:38:12 51°13.195 2°39.956 -999 -999 -999 -999 -999
2008-05-07 08:38:17 51°13.181 2°39.935 -999 -999 -999 -999 -999
2008-05-07 08:38:22 51°13.167 2°39.914 -999 -999 -999 -999 -999
2008-05-07 08:38:27 51°13.153 2°39.893 -999 -999 -999 -999 -999
2008-05-07 08:38:32 51°13.139 2°39.872 -999 -999 -999 -999 -999
2008-05-07 08:38:37 51°13.125 2°39.851 -999 -999 -999 -999 -999
2008-05-07 08:38:42 51°13.11 2°39.831 -999 -999 -999 -999 -999
2008-05-07 08:38:47 51°13.096 2°39.81 -999 -999 -999 -999 -999
2008-05-07 08:38:52 51°13.081 2°39.789 -999 -999 -999 -999 -999
2008-05-07 08:38:57 51°13.067 2°39.769 -999 -999 -999 -999 -999
2008-05-07 08:39:02 51°13.053 2°39.748 -999 -999 -999 -999 -999
2008-05-07 08:39:07 51°13.038 2°39.728 -999 -999 -999 -999 -999
2008-05-07 08:39:12 51°13.024 2°39.707 -999 -999 -999 -999 -999
2008-05-07 08:39:17 51°13.01 2°39.687 -999 -999 -999 -999 -999
2008-05-07 08:39:22 51°12.996 2°39.666 -999 -999 -999 -999 -999
2008-05-07 08:39:27 51°12.981 2°39.646 -999 -999 -999 -999 -999
2008-05-07 08:39:32 51°12.968 2°39.624 -999 -999 -999 -999 -999
2008-05-07 08:39:37 51°12.954 2°39.603 -999 -999 -999 -999 -999
2008-05-07 08:39:42 51°12.941 2°39.581 -999 -999 -999 -999 -999
2008-05-07 08:39:47 51°12.927 2°39.559 -999 -999 -999 -999 -999
2008-05-07 08:39:52 51°12.913 2°39.538 -999 -999 -999 -999 -999
2008-05-07 08:39:57 51°12.9 2°39.516 -999 -999 -999 -999 -999
2008-05-07 08:40:02 51°12.886 2°39.494 -999 -999 -999 -999 -999
2008-05-07 08:40:07 51°12.873 2°39.472 -999 -999 -999 -999 -999
2008-05-07 08:40:12 51°12.86 2°39.45 -999 -999 -999 -999 -999
2008-05-07 08:40:17 51°12.846 2°39.429 -999 -999 -999 -999 -999
2008-05-07 08:40:22 51°12.832 2°39.407 -999 -999 -999 -999 -999
2008-05-07 08:40:27 51°12.819 2°39.385 -999 -999 -999 -999 -999
2008-05-07 08:40:32 51°12.805 2°39.363 -999 -999 -999 -999 -999
2008-05-07 08:40:37 51°12.792 2°39.341 -999 -999 -999 -999 -999
2008-05-07 08:40:42 51°12.778 2°39.32 -999 -999 -999 -999 -999
2008-05-07 08:40:47 51°12.765 2°39.299 -999 -999 -999 -999 -999
2008-05-07 08:40:52 51°12.751 2°39.277 -999 -999 -999 -999 -999
2008-05-07 08:40:57 51°12.736 2°39.256 -999 -999 -999 -999 -999
2008-05-07 08:41:02 51°12.722 2°39.235 -999 -999 -999 -999 -999
2008-05-07 08:41:07 51°12.708 2°39.215 -999 -999 -999 -999 -999
2008-05-07 08:41:12 51°12.694 2°39.194 -999 -999 -999 -999 -999
2008-05-07 08:41:17 51°12.68 2°39.173 -999 -999 -999 -999 -999
2008-05-07 08:41:22 51°12.665 2°39.153 -999 -999 -999 -999 -999
2008-05-07 08:41:27 51°12.651 2°39.132 -999 -999 -999 -999 -999
2008-05-07 08:41:32 51°12.637 2°39.112 -999 -999 -999 -999 -999
2008-05-07 08:41:37 51°12.623 2°39.091 -999 -999 -999 -999 -999
2008-05-07 08:41:42 51°12.608 2°39.071 -999 -999 -999 -999 -999
2008-05-07 08:41:47 51°12.594 2°39.05 -999 -999 -999 -999 -999
2008-05-07 08:41:52 51°12.58 2°39.03 -999 -999 -999 -999 -999
2008-05-07 08:41:57 51°12.566 2°39.01 -999 -999 -999 -999 -999
2008-05-07 08:42:02 51°12.551 2°38.99 -999 -999 -999 -999 -999
2008-05-07 08:42:07 51°12.537 2°38.97 -999 -999 -999 -999 -999
2008-05-07 08:42:12 51°12.523 2°38.949 -999 -999 -999 -999 -999
2008-05-07 08:42:17 51°12.508 2°38.928 -999 -999 -999 -999 -999